When you browse on this site, cookies collect data to enhance your experience and personalize the content and advertising you see.
Visit our Privacy Policy to learn more. By continuing to use the site, you agree to this use of cookies and data.

Hourly Weather Bucharest

Today, 28 September, Monday

Time Temperature Precipitation Wind Pressure Humidity
00:00 +17°C° 0 mm 2 mps 755 mmHg 44%
01:00 +17°C° 0 mm 3 mps 755 mmHg 45%
02:00 +16°C° 0 mm 3 mps 755 mmHg 46%
03:00 +16°C° 0 mm 3 mps 755 mmHg 50%
04:00 +15°C° 0 mm 4 mps 755 mmHg 54%
05:00 +15°C° 0 mm 4 mps 755 mmHg 58%
06:00 +16°C° 0 mm 5 mps 755 mmHg 59%
07:00 +16°C° 0 mm 5 mps 754 mmHg 61%
08:00 +17°C° 0 mm 6 mps 755 mmHg 65%
09:00 +21°C° 0 mm 6 mps 755 mmHg 57%
10:00 +23°C° 0 mm 6 mps 754 mmHg 49%
11:00 +27°C° 0 mm 6 mps 754 mmHg 41%
12:00 +28°C° 0 mm 6 mps 754 mmHg 38%
13:00 +29°C° 0 mm 6 mps 753 mmHg 35%
14:00 +28°C° 0 mm 4 mps 753 mmHg 36%
15:00 +28°C° 0 mm 3 mps 753 mmHg 37%
16:00 +28°C° 0 mm 2 mps 753 mmHg 39%
17:00 +28°C° 0 mm 2 mps 752 mmHg 40%
18:00 +26°C° 0 mm 2 mps 752 mmHg 46%
19:00 +25°C° 0 mm 3 mps 752 mmHg 51%
20:00 +23°C° 0 mm 4 mps 752 mmHg 57%
21:00 +22°C° 0.1 mm 4 mps 752 mmHg 63%
22:00 +21°C° 0.1 mm 3 mps 752 mmHg 70%
23:00 +20°C° 0.1 mm 3 mps 752 mmHg 76%

Tomorrow, 29 September, Tuesday

Time Temperature Precipitation Wind Pressure Humidity
00:00 +20°C° 0.3 mm 3 mps 751 mmHg 81%
01:00 +19°C° 0.3 mm 3 mps 751 mmHg 86%
02:00 +18°C° 0.3 mm 3 mps 751 mmHg 91%
03:00 +18°C° 0.5 mm 3 mps 751 mmHg 92%
04:00 +18°C° 0.5 mm 3 mps 750 mmHg 93%
05:00 +18°C° 0.5 mm 3 mps 750 mmHg 93%
06:00 +18°C° 0.7 mm 2 mps 750 mmHg 92%
07:00 +19°C° 0.7 mm 2 mps 750 mmHg 90%
08:00 +19°C° 0.7 mm 2 mps 750 mmHg 89%
09:00 +19°C° 1.2 mm 3 mps 750 mmHg 85%
10:00 +18°C° 1.2 mm 3 mps 750 mmHg 82%
11:00 +18°C° 1.2 mm 4 mps 750 mmHg 78%
12:00 +19°C° 0.4 mm 4 mps 750 mmHg 70%
13:00 +20°C° 0.4 mm 5 mps 750 mmHg 62%
14:00 +21°C° 0.4 mm 5 mps 750 mmHg 54%
15:00 +21°C° 0 mm 5 mps 750 mmHg 54%
16:00 +21°C° 0 mm 4 mps 750 mmHg 54%
17:00 +21°C° 0 mm 4 mps 750 mmHg 54%
18:00 +20°C° 0.1 mm 3 mps 750 mmHg 57%
19:00 +19°C° 0.1 mm 3 mps 750 mmHg 61%
20:00 +19°C° 0.1 mm 2 mps 750 mmHg 64%
21:00 +18°C° 0.1 mm 2 mps 750 mmHg 66%
22:00 +17°C° 0.1 mm 2 mps 750 mmHg 69%
23:00 +17°C° 0.1 mm 2 mps 750 mmHg 72%

Day after tomorrow, 30 September, Wednesday

Time Temperature Precipitation Wind Pressure Humidity
00:00 +16°C° 0 mm 2 mps 750 mmHg 72%
01:00 +16°C° 0 mm 3 mps 750 mmHg 72%
02:00 +14°C° 0 mm 4 mps 750 mmHg 72%
03:00 +14°C° 0 mm 4 mps 750 mmHg 72%
04:00 +13°C° 0 mm 4 mps 750 mmHg 71%
05:00 +13°C° 0 mm 5 mps 749 mmHg 71%
06:00 +13°C° 0 mm 5 mps 749 mmHg 69%
07:00 +14°C° 0 mm 5 mps 749 mmHg 67%
08:00 +14°C° 0 mm 6 mps 749 mmHg 64%
09:00 +15°C° 0 mm 6 mps 749 mmHg 59%
10:00 +17°C° 0 mm 6 mps 748 mmHg 53%
11:00 +19°C° 0 mm 6 mps 748 mmHg 48%
12:00 +20°C° 0 mm 6 mps 748 mmHg 44%
13:00 +21°C° 0 mm 6 mps 747 mmHg 40%
14:00 +22°C° 0 mm 6 mps 747 mmHg 36%
15:00 +22°C° 0 mm 6 mps 747 mmHg 38%
16:00 +21°C° 0 mm 6 mps 747 mmHg 40%
17:00 +21°C° 0 mm 6 mps 747 mmHg 42%
18:00 +20°C° 0 mm 6 mps 747 mmHg 46%
19:00 +19°C° 0 mm 6 mps 747 mmHg 49%
20:00 +17°C° 0 mm 6 mps 747 mmHg 53%
21:00 +16°C° 0 mm 6 mps 747 mmHg 57%
22:00 +16°C° 0 mm 6 mps 747 mmHg 61%
23:00 +15°C° 0 mm 5 mps 747 mmHg 65%

1 October, Thursday

Time Temperature Precipitation Wind Pressure Humidity
00:00 +15°C° 0 mm 5 mps 747 mmHg 67%
01:00 +14°C° 0 mm 5 mps 747 mmHg 69%
02:00 +14°C° 0 mm 5 mps 747 mmHg 71%
03:00 +14°C° 0 mm 5 mps 747 mmHg 72%
04:00 +13°C° 0 mm 5 mps 746 mmHg 73%
05:00 +13°C° 0 mm 5 mps 746 mmHg 74%
06:00 +14°C° 0 mm 5 mps 746 mmHg 72%
07:00 +14°C° 0 mm 5 mps 746 mmHg 71%
08:00 +15°C° 0 mm 6 mps 746 mmHg 69%
09:00 +15°C° 0 mm 6 mps 747 mmHg 69%
10:00 +15°C° 0 mm 6 mps 747 mmHg 68%
11:00 +16°C° 0 mm 6 mps 747 mmHg 67%
12:00 +15°C° 0.1 mm 5 mps 747 mmHg 69%
13:00 +15°C° 0.1 mm 5 mps 747 mmHg 71%
14:00 +15°C° 0.1 mm 5 mps 747 mmHg 74%
15:00 +15°C° 0.1 mm 5 mps 747 mmHg 74%
16:00 +14°C° 0.1 mm 4 mps 747 mmHg 74%
17:00 +14°C° 0.1 mm 4 mps 747 mmHg 75%
18:00 +14°C° 0.1 mm 4 mps 747 mmHg 75%
19:00 +14°C° 0.1 mm 3 mps 748 mmHg 75%
20:00 +14°C° 0.1 mm 3 mps 748 mmHg 75%
21:00 +14°C° 0 mm 3 mps 748 mmHg 75%
22:00 +14°C° 0 mm 3 mps 748 mmHg 75%
23:00 +14°C° 0 mm 3 mps 748 mmHg 75%

2 October, Friday

Time Temperature Precipitation Wind Pressure Humidity
00:00 +14°C° 0 mm 3 mps 748 mmHg 76%
01:00 +14°C° 0 mm 3 mps 748 mmHg 77%
02:00 +13°C° 0 mm 3 mps 748 mmHg 77%
03:00 +13°C° 0 mm 3 mps 749 mmHg 79%
04:00 +13°C° 0 mm 3 mps 749 mmHg 80%
05:00 +13°C° 0 mm 3 mps 749 mmHg 82%
06:00 +13°C° 0 mm 3 mps 749 mmHg 80%
07:00 +14°C° 0 mm 3 mps 749 mmHg 78%
08:00 +14°C° 0 mm 3 mps 750 mmHg 76%
09:00 +17°C° 0 mm 3 mps 750 mmHg 69%
10:00 +18°C° 0 mm 3 mps 750 mmHg 61%
11:00 +20°C° 0 mm 4 mps 750 mmHg 54%
12:00 +21°C° 0 mm 4 mps 750 mmHg 51%
13:00 +22°C° 0 mm 4 mps 750 mmHg 48%
14:00 +23°C° 0 mm 4 mps 750 mmHg 45%
15:00 +22°C° 0 mm 3 mps 750 mmHg 46%
16:00 +22°C° 0 mm 3 mps 750 mmHg 46%
17:00 +23°C° 0 mm 2 mps 751 mmHg 47%
18:00 +21°C° 0 mm 2 mps 751 mmHg 51%
19:00 +21°C° 0 mm 1 mps 751 mmHg 54%
20:00 +20°C° 0 mm 1 mps 752 mmHg 57%
21:00 +19°C° 0 mm 1 mps 752 mmHg 59%
22:00 +19°C° 0 mm 1 mps 752 mmHg 60%
23:00 +16°C° 0 mm 0 mps 753 mmHg 62%

3 October, Saturday

Time Temperature Precipitation Wind Pressure Humidity
00:00 +18°C° 0 mm 1 mps 753 mmHg 63%
01:00 +18°C° 0 mm 1 mps 753 mmHg 64%
02:00 +16°C° 0 mm 1 mps 753 mmHg 65%
03:00 +16°C° 0 mm 1 mps 753 mmHg 66%
04:00 +16°C° 0 mm 1 mps 753 mmHg 67%
05:00 +16°C° 0 mm 1 mps 753 mmHg 67%
06:00 +18°C° 0 mm 1 mps 753 mmHg 65%
07:00 +18°C° 0 mm 1 mps 753 mmHg 62%
08:00 +19°C° 0 mm 1 mps 754 mmHg 60%
09:00 +21°C° 0 mm 1 mps 754 mmHg 54%
10:00 +23°C° 0 mm 1 mps 754 mmHg 47%
11:00 +25°C° 0 mm 1 mps 754 mmHg 41%
12:00 +26°C° 0 mm 1 mps 754 mmHg 38%
13:00 +27°C° 0 mm 1 mps 753 mmHg 35%
14:00 +28°C° 0 mm 1 mps 753 mmHg 32%
15:00 +28°C° 0 mm 1 mps 753 mmHg 33%
16:00 +25°C° 0 mm 0 mps 753 mmHg 35%
17:00 +25°C° 0 mm 0 mps 753 mmHg 36%
18:00 +24°C° 0 mm 0 mps 753 mmHg 38%
19:00 +24°C° 0 mm 1 mps 753 mmHg 40%
20:00 +23°C° 0 mm 1 mps 754 mmHg 42%
21:00 +23°C° 0 mm 1 mps 754 mmHg 44%
22:00 +22°C° 0 mm 1 mps 754 mmHg 45%
23:00 +21°C° 0 mm 1 mps 754 mmHg 47%
Show more